Weather History for KGEZ - August, 2012

Change the Weather History Date:

Wednesday, August 1, 2012

  Actual Average Record
Temperature  
Mean Temperature 77 °F 73 °F  
Max Temperature 91 °F 84 °F 94 °F (2011)
Min Temperature 63 °F 63 °F 59 °F (2003)
Degree Days  
Heating Degree Days 0 0  
Month to date heating degree days 0 0  
Since 1 June heating degree days 15 16  
Since 1 July heating degree days 0 1  
Cooling Degree Days 12 8  
Month to date cooling degree days 12 8  
Year to date cooling degree days 1040 581  
Since 1 June cooling degree days 800 500  
Growing Degree Days 27 (Base 50)    
Moisture  
Dew Point 60 °F    
Average Humidity 61    
Maximum Humidity 93    
Minimum Humidity 29    
Precipitation  
Precipitation 0.00 in 0.11 in 0.09 in (2000)
Month to date precipitation 0.00 0.11  
Year to date precipitation 13.76 27.00  
Sea Level Pressure  
Sea Level Pressure 29.88 in    
Wind  
Wind Speed 6 mph (North)    
Max Wind Speed 15 mph    
Max Gust Speed 20 mph    
Visibility 10 miles    
Events      
T = Trace of Precipitation, MM = Missing Value Source: NWS Daily Summary

Daily Weather History Graph

Daily Weather History Graph

Search for Another Location

Airport or City:

Trip Planner

Search our weather history database for the weather conditions in past years. The results will help you decide how hot, cold, wet, or windy it might be!

Date:

Astronomy

Aug. 01, 2012 Rise Set
Actual Time 6:43 AM EDT 8:55 PM EDT
Civil Twilight 6:13 AM EDT 9:25 PM EDT
Nautical Twilight 5:36 AM EDT 10:02 PM EDT
Astronomical Twilight 4:55 AM EDT 10:42 PM EDT
Moon 8:25 PM EDT (8/1) 6:11 AM EDT (8/1)
Length of Visible Light 15h 12m
Length of Day
14h 12m
Full, 100% of the Moon is Illuminated
Aug 1
Full
Aug 1
Full
Aug 9
Last Quarter
Aug 17
New
Aug 24
First Quarter

Hourly Weather History & Observations

Time (EDT) Temp. Heat Index Dew Point Humidity Pressure Visibility Wind Dir Wind Speed Gust Speed Precip Events Conditions
12:53 AM 73.9 °F - 68.0 °F 82% 29.89 in 10.0 mi North 4.6 mph - N/A   Clear
1:53 AM 73.0 °F - 66.9 °F 81% 29.89 in 10.0 mi North 4.6 mph - N/A   Clear
2:53 AM 70.0 °F - 64.9 °F 84% 29.88 in 10.0 mi NNW 4.6 mph - N/A   Clear
4:53 AM 66.0 °F - 63.0 °F 90% 29.88 in 10.0 mi NNW 4.6 mph - N/A   Clear
5:53 AM 64.9 °F - 62.1 °F 90% 29.89 in 8.0 mi North 3.5 mph - N/A   Clear
6:53 AM 64.0 °F - 62.1 °F 93% 29.90 in 5.0 mi North 3.5 mph - N/A   Clear
7:53 AM 66.0 °F - 63.0 °F 90% 29.91 in 6.0 mi North 4.6 mph - N/A   Clear
8:53 AM 72.0 °F - 64.9 °F 78% 29.91 in 10.0 mi Variable 3.5 mph - N/A   Clear
9:53 AM 78.1 °F - 66.0 °F 66% 29.92 in 10.0 mi NNW 4.6 mph - N/A   Clear
10:53 AM 82.9 °F 84.6 °F 64.9 °F 54% 29.91 in 10.0 mi North 10.4 mph - N/A   Clear
11:53 AM 87.1 °F 86.7 °F 60.1 °F 40% 29.90 in 10.0 mi North 10.4 mph - N/A   Clear
12:53 PM 88.0 °F 86.7 °F 57.0 °F 35% 29.89 in 10.0 mi North 13.8 mph 17.3 mph N/A   Clear
1:53 PM 89.1 °F 86.7 °F 53.1 °F 29% 29.89 in 10.0 mi North 8.1 mph - N/A   Clear
2:53 PM 90.0 °F 88.6 °F 57.0 °F 33% 29.88 in 10.0 mi North 12.7 mph 18.4 mph N/A   Clear
3:53 PM 89.1 °F 88.0 °F 57.9 °F 35% 29.87 in 10.0 mi North 5.8 mph 19.6 mph N/A   Clear
4:53 PM 90.0 °F 89.1 °F 59.0 °F 35% 29.87 in 10.0 mi North 10.4 mph 17.3 mph N/A   Clear
5:53 PM 89.1 °F 86.9 °F 54.0 °F 30% 29.86 in 10.0 mi North 6.9 mph - N/A   Clear
6:53 PM 88.0 °F 85.9 °F 54.0 °F 31% 29.86 in 10.0 mi North 8.1 mph - N/A   Clear
7:53 PM 84.0 °F 83.0 °F 55.9 °F 38% 29.85 in 10.0 mi North 8.1 mph - N/A   Clear
8:53 PM 79.0 °F - 54.0 °F 42% 29.86 in 10.0 mi North 5.8 mph - N/A   Clear
9:53 PM 72.0 °F - 55.0 °F 55% 29.86 in 10.0 mi Calm Calm - N/A   Clear
10:53 PM 66.9 °F - 55.0 °F 66% 29.88 in 10.0 mi Calm Calm - N/A   Clear
11:53 PM 64.0 °F - 55.0 °F 73% 29.89 in 10.0 mi Calm Calm - N/A   Clear